Flag for Germany Weather past 2 weeks in Magdeburg, Saxony-Anhalt, Germany

Now
81 °F

Sunny.


Feels Like: 83 °F
Forecast: 72 / 93 °F
Wind: 2 mph from South

Location: Magdeburg

Current Time: Jul 4, 2015 at 9:26:31 AM

Latest Report: Jul 4, 2015 at 9:00 AM


Visibility: 9 mi

Pressure: 30.13 "Hg

Humidity: 62%

Dew point: 67 °F

Location of MagdeburgLocation

Historic Weather in Magdeburg — Graph

°F

Magdeburg temperature yesterday

Maximum temperature yesterday: 91 °F (at 6:00 PM)
Minimum temperature yesterday: 65 °F (at 6:00 AM)
Average temperature yesterday: 80 °F

Past Weeks' High & Low Weather Summary

 TemperatureHumidityPressure
High91 °F (Jul 2, 5:00 PM)96% (Jun 23, 6:00 AM)30.25 "Hg (Jun 23, 6:00 AM)
Low48 °F (Jun 21, 4:00 AM)26% (Jul 2, 5:00 PM)29.63 "Hg (Jun 23, 2:00 AM)
Average65 °F65%30.07 "Hg
* Reported Jun 19 8:00 AM — Jul 4 8:00 AM, Magdeburg, Weather by CustomWeather, © 2015

Note: Actual official high and low records may vary slightly from our data, if they occured in-between our weather recording intervals... More about our weather records

Advertising

Magdeburg weather history for previous 24 hours

 ConditionsComfort  
Time TempWeatherWind HumidityBarometerVisibility
8:00 AM
Sat, Jul 4
75 °FSunny.1 mph71%30.14 "Hg10 mi
7:00 AM72 °FSunny.1 mph74%30.14 "Hg12 mi
6:00 AM67 °FSunny.1 mph82%30.16 "Hg10 mi
4:00 AM68 °FPassing clouds.1 mph78%30.16 "Hg7 mi
3:00 AM69 °FPassing clouds.1 mph75%30.17 "Hg9 mi
2:00 AM70 °FPassing clouds.1 mph75%30.18 "Hg13 mi
1:00 AM72 °FClear.2 mph68%30.19 "Hg12 mi
12:00 AM74 °FPassing clouds.1 mph67%30.19 "Hg14 mi
10:00 PM
Fri, Jul 3
80 °FPassing clouds.1 mph58%30.20 "Hg3 mi
9:00 PM86 °FPassing clouds.1 mph47%30.19 "Hg16 mi
8:00 PM90 °FPartly sunny.1 mph40%30.19 "Hg18 mi
7:00 PM91 °FPassing clouds.2 mph35%30.19 "Hg19 mi
6:00 PM91 °FScattered clouds.1 mph38%30.20 "Hg16 mi
4:00 PM89 °FPartly sunny.2 mph40%30.21 "Hg16 mi
3:00 PM91 °FPartly sunny.2 mph34%30.21 "Hg16 mi
2:00 PM89 °FPartly sunny.2 mph35%30.21 "Hg19 mi
1:00 PM85 °FPartly sunny.3 mph40%30.21 "Hg19 mi
12:00 PM84 °FPartly sunny.2 mph45%30.25 "Hg22 mi
10:00 AM78 °FScattered clouds.2 mph53%30.25 "Hg22 mi
9:00 AM75 °FPassing clouds.1 mph55%30.25 "Hg28 mi
Weather by CustomWeather, © 2015

See weather overviewHow to use our weather pages